CW9206 Weather Reports


time (UTC)temp
C
wind
direction
speed
KPH
gust
KPH
rain 1hr
cm
rain 24hr
cm
rain mn
cm
humidity
%
barometer
mb
20260904101748 15 218 0.0 0.0 0.00 0.00 0.00 6 1012.3
20260904101248 15 218 0.0 0.0 0.00 0.00 0.00 6 1012.4
20260904100748 15 218 0.0 0.0 0.00 0.00 0.00 6 1012.3
20260904100248 16 218 0.0 0.0 0.00 0.00 0.00 6 1012.2
20260904095748 16 218 0.0 0.0 0.00 0.00 0.00 6 1012.3
20260904095247 16 218 0.0 0.0 0.00 0.00 0.00 6 1012.3
20260904093748 16 218 0.0 0.0 0.00 0.00 0.00 6 1012.3
20260904093248 16 218 0.0 0.0 0.00 0.00 0.00 6 1012.2
20260904092747 16 218 0.0 0.0 0.00 0.00 0.00 6 1012.3
20260904091747 16 218 0.0 0.0 0.00 0.00 0.00 6 1012.3
20260904091248 16 218 0.0 0.0 0.00 0.00 0.00 6 1012.3
20260904090747 16 218 0.0 0.0 0.00 0.00 0.00 7 1012.3
20260904090247 16 218 0.0 0.0 0.00 0.00 0.00 7 1012.3
20260904085747 16 218 0.0 0.0 0.00 0.00 0.00 7 1012.4
20260904085247 16 218 0.0 0.0 0.00 0.00 0.00 7 1012.4
20260904084747 16 218 0.0 0.0 0.00 0.00 0.00 7 1012.5
20260904084247 16 218 0.0 0.0 0.00 0.00 0.00 7 1012.5
20260904083247 16 218 0.0 0.0 0.00 0.00 0.00 8 1012.6
20260904082247 16 218 0.0 0.0 0.00 0.00 0.00 8 1012.6
20260904081747 16 218 0.0 0.0 0.00 0.00 0.00 8 1012.6
20260904080747 17 218 0.0 0.0 0.00 0.00 0.00 8 1012.5
20260904075747 17 218 0.0 0.0 0.00 0.00 0.00 8 1012.6
20260904075247 17 218 0.0 0.0 0.00 0.00 0.00 8 1012.6
20260904074747 17 218 0.0 0.0 0.00 0.00 0.00 8 1012.6
20260904074247 17 218 0.0 0.0 0.00 0.00 0.00 8 1012.5
20260904073746 17 218 0.0 0.0 0.00 0.00 0.00 7 1012.5
20260904073246 17 218 0.0 0.0 0.00 0.00 0.00 7 1012.5
20260904072747 17 218 0.0 0.0 0.00 0.00 0.00 7 1012.5
20260904072246 17 218 0.0 0.0 0.00 0.00 0.00 7 1012.5
20260904071747 17 218 0.0 0.0 0.00 0.00 0.00 7 1012.5
20260904071246 17 218 0.0 0.0 0.00 0.00 0.00 7 1012.5
20260904070747 17 218 0.0 0.0 0.00 0.00 0.00 7 1012.5
20260904070246 17 218 0.0 0.0 0.00 0.00 0.00 7 1012.5
20260904065747 17 218 0.0 0.0 0.00 0.00 0.00 7 1012.5
20260904065246 17 218 0.0 0.0 0.00 0.00 0.00 7 1012.5
20260904064746 17 218 0.0 0.0 0.00 0.00 0.00 7 1012.5
20260904064247 17 218 0.0 0.0 0.00 0.00 0.00 7 1012.6
20260904063747 17 218 0.0 0.0 0.00 0.00 0.00 7 1012.6
20260904063246 17 218 0.0 0.0 0.00 0.00 0.00 6 1012.5
20260904062746 17 218 0.0 0.0 0.00 0.00 0.00 6 1012.6
20260904062246 17 218 0.0 0.0 0.00 0.00 0.00 6 1012.6
20260904061746 17 218 0.0 0.0 0.00 0.00 0.00 6 1012.6
20260904060746 17 218 0.0 0.0 0.00 0.00 0.00 5 1012.5
20260904055746 17 218 0.0 0.0 0.00 0.00 0.00 5 1012.3
20260904055246 17 218 0.0 0.0 0.00 0.00 0.00 5 1012.3
20260904054745 17 218 0.0 0.0 0.00 0.00 0.00 5 1012.2
20260904054246 17 218 0.0 0.0 0.00 0.00 0.00 5 1012.3
20260904053746 17 218 0.0 0.0 0.00 0.00 0.00 6 1012.3
20260904052245 16 218 0.0 0.0 0.00 0.00 0.00 7 1012.5
20260904051747 16 218 0.0 0.0 0.00 0.00 0.00 8 1012.4
20260904050746 17 218 0.0 0.0 0.00 0.00 0.00 8 1012.6
20260904050245 17 218 0.0 0.0 0.00 0.00 0.00 8 1012.5
20260904045746 17 218 0.0 0.0 0.00 0.00 0.00 8 1012.4
20260904045246 17 218 0.0 0.0 0.00 0.00 0.00 8 1012.4
20260904044746 17 218 0.0 0.0 0.00 0.00 0.00 8 1012.4
20260904044245 17 218 0.0 0.0 0.00 0.00 0.00 8 1012.3
20260904043746 17 218 0.0 0.0 0.00 0.00 0.00 9 1012.3
20260904043245 17 218 0.0 0.0 0.00 0.00 0.00 9 1012.3
20260904042745 17 218 0.0 0.0 0.00 0.00 0.00 9 1012.2
20260904042245 17 218 0.0 0.0 0.00 0.00 0.00 9 1012.2
20260904041746 17 218 0.0 0.0 0.00 0.00 0.00 10 1012.2
20260904040745 17 218 0.0 0.0 0.00 0.00 0.00 11 1012.1
20260904035746 17 218 0.0 0.0 0.00 0.00 0.00 12 1012.1
20260904035246 17 218 0.0 0.0 0.00 0.00 0.00 12 1012.0
20260904034745 17 218 0.0 0.0 0.00 0.00 0.00 13 1011.8
20260904034245 17 218 0.0 0.0 0.00 0.00 0.00 14 1011.9
20260904033245 17 218 0.0 0.0 0.00 0.00 0.00 16 1011.8
20260904032245 18 218 0.0 0.0 0.00 0.00 0.00 19 1011.7
20260904031745 18 218 0.0 0.0 0.00 0.00 0.00 21 1011.6
20260904031245 18 218 0.0 0.0 0.00 0.00 0.00 22 1011.5
20260904025245 19 218 0.0 0.0 0.00 0.00 0.00 28 1011.3
20260904024745 19 218 0.0 0.0 0.00 0.00 0.00 30 1011.2
20260904024244 19 218 0.0 0.0 0.00 0.00 0.00 31 1011.2
20260904023745 20 218 0.0 0.0 0.00 0.00 0.00 32 1011.2
20260904023245 20 218 0.0 0.0 0.00 0.00 0.00 33 1011.2
20260904022744 20 218 0.0 0.0 0.00 0.00 0.00 34 1011.1
20260904022244 20 218 0.0 0.0 0.00 0.00 0.00 35 1011.2
20260904021745 20 218 0.0 0.0 0.00 0.00 0.00 36 1011.1
20260904021244 20 218 0.0 0.0 0.00 0.00 0.00 36 1011.2
20260904020745 21 218 0.0 0.0 0.00 0.00 0.00 37 1011.2
20260904020244 21 218 0.0 0.0 0.00 0.00 0.00 38 1011.2
20260904015744 21 218 0.0 0.0 0.00 0.00 0.00 38 1011.3
20260904015244 21 218 0.0 0.0 0.00 0.00 0.00 38 1011.2
20260904014744 22 218 0.0 0.0 0.00 0.00 0.00 39 1011.2
20260904014244 22 218 0.0 0.0 0.00 0.00 0.00 40 1011.2
20260904013744 22 218 0.0 0.0 0.00 0.00 0.00 41 1011.1
20260904013244 22 218 0.0 0.0 0.00 0.00 0.00 41 1011.2
20260904012744 22 218 0.0 0.0 0.00 0.00 0.00 41 1011.1
20260904012243 23 218 0.0 0.0 0.00 0.00 0.00 41 1011.0
20260904011243 23 218 0.0 0.0 0.00 0.00 0.00 42 1011.1
20260904010243 23 218 0.0 0.0 0.00 0.00 0.00 43 1011.0
20260904005743 23 218 0.0 0.0 0.00 0.00 0.00 43 1011.1
20260904005243 23 218 0.0 0.0 0.00 0.00 0.00 43 1011.0
20260904004743 24 218 0.0 0.0 0.00 0.00 0.00 43 1011.1
20260904004243 24 218 0.0 0.0 0.00 0.00 0.00 42 1011.1
20260904003243 26 218 0.0 0.0 0.00 0.00 0.00 41 1011.1
20260904002743 26 218 0.0 0.0 0.00 0.00 0.00 40 1011.1
20260904002243 26 218 0.0 0.0 0.00 0.00 0.00 40 1011.1
20260904000743 27 218 0.0 0.0 0.00 0.00 0.00 39 1011.1
20260903235743 27 218 0.0 0.0 0.00 0.00 0.00 39 1011.1
20260903235243 27 218 0.0 0.0 0.00 0.00 0.00 38 1011.1
20260903234743 27 218 0.0 0.0 0.00 0.00 0.00 38 1011.1
20260903234242 28 218 0.0 0.0 0.00 0.00 0.00 38 1011.1
20260903233742 27 218 0.0 0.0 0.00 0.00 0.00 38 1011.1
20260903232742 28 218 0.0 0.0 0.00 0.00 0.00 38 1011.2
20260903232242 28 218 0.0 0.0 0.00 0.00 0.00 37 1011.2
20260903231742 28 218 0.0 0.0 0.00 0.00 0.00 37 1011.2
20260903231242 28 218 0.0 0.0 0.00 0.00 0.00 37 1011.2
20260903230742 28 218 0.0 0.0 0.00 0.00 0.00 37 1011.3
20260903230243 28 218 0.0 0.0 0.00 0.00 0.00 37 1011.3
20260903225742 28 218 0.0 0.0 0.00 0.00 0.00 36 1011.5
20260903224242 28 218 0.0 0.0 0.00 0.00 0.00 36 1011.6
20260903223742 28 218 0.0 0.0 0.00 0.00 0.00 36 1011.6
20260903223242 28 218 0.0 0.0 0.00 0.00 0.00 37 1011.6
20260903222742 28 218 0.0 0.0 0.00 0.00 0.00 36 1011.7
20260903222242 28 218 0.0 0.0 0.00 0.00 0.00 36 1011.8
20260903221742 28 218 0.0 0.0 0.00 0.00 0.00 36 1011.9
20260903221242 28 218 0.0 0.0 0.00 0.00 0.00 36 1011.9
20260903220742 29 218 0.0 0.0 0.00 0.00 0.00 35 1011.9
20260903220242 28 218 0.0 0.0 0.00 0.00 0.00 36 1011.9
20260903215241 28 218 0.0 0.0 0.00 0.00 0.00 35 1012.1
20260903214742 28 218 0.0 0.0 0.00 0.00 0.00 35 1012.1
20260903214242 28 218 0.0 0.0 0.00 0.00 0.00 35 1012.2
20260903213741 28 218 0.0 0.0 0.00 0.00 0.00 35 1012.2
20260903213242 28 218 0.0 0.0 0.00 0.00 0.00 36 1012.3
20260903212241 28 218 0.0 0.0 0.00 0.00 0.00 35 1012.3
20260903211741 28 218 0.0 0.0 0.00 0.00 0.00 35 1012.3
20260903211241 28 218 0.0 0.0 0.00 0.00 0.00 35 1012.3
20260903210741 28 218 0.0 0.0 0.00 0.00 0.00 35 1012.3
20260903210241 28 218 0.0 0.0 0.00 0.00 0.00 35 1012.4
20260903205741 28 218 0.0 0.0 0.00 0.00 0.00 34 1012.4
20260903205241 28 218 0.0 0.0 0.00 0.00 0.00 34 1012.3
20260903204741 28 218 0.0 0.0 0.00 0.00 0.00 34 1012.5
20260903203741 28 218 0.0 0.0 0.00 0.00 0.00 34 1012.5
20260903203241 28 218 0.0 0.0 0.00 0.00 0.00 33 1012.5
20260903202740 28 218 0.0 0.0 0.00 0.00 0.00 33 1012.5
20260903202240 28 218 0.0 0.0 0.00 0.00 0.00 33 1012.6
20260903201241 28 218 0.0 0.0 0.00 0.00 0.00 33 1012.6
20260903200240 28 218 0.0 0.0 0.00 0.00 0.00 32 1012.7
20260903195240 28 218 0.0 0.0 0.00 0.00 0.00 31 1012.9
20260903193740 27 218 0.0 0.0 0.00 0.00 0.00 30 1013.0
20260903192740 27 218 0.0 0.0 0.00 0.00 0.00 28 1013.1
20260903191739 26 218 0.0 0.0 0.00 0.00 0.00 27 1013.1
20260903190740 26 218 0.0 0.0 0.00 0.00 0.00 25 1013.2
20260903190309 26 218 0.0 0.0 0.00 0.00 0.00 24 1013.3
20260903185739 25 218 0.0 0.0 0.00 0.00 0.00 23 1013.4
20260903185309 25 218 0.0 0.0 0.00 0.00 0.00 23 1013.4
20260903184739 24 218 0.0 0.0 0.00 0.00 0.00 23 1013.6
20260903184239 24 218 0.0 0.0 0.00 0.00 0.00 22 1013.6
20260903183739 24 218 0.0 0.0 0.00 0.00 0.00 22 1013.6
20260903183239 23 218 0.0 0.0 0.00 0.00 0.00 21 1013.6
20260903182739 23 218 0.0 0.0 0.00 0.00 0.00 21 1013.6
20260903182239 23 218 0.0 0.0 0.00 0.00 0.00 20 1013.7
20260903181739 23 218 0.0 0.0 0.00 0.00 0.00 20 1013.7
20260903181309 23 218 0.0 0.0 0.00 0.00 0.00 19 1013.8
20260903180739 22 218 0.0 0.0 0.00 0.00 0.00 18 1013.8
20260903180309 22 218 0.0 0.0 0.00 0.00 0.00 18 1013.8
20260903175739 22 218 0.0 0.0 0.00 0.00 0.00 17 1013.8
20260903175239 22 218 0.0 0.0 0.00 0.00 0.00 17 1013.8
20260903174809 21 218 0.0 0.0 0.00 0.00 0.00 17 1013.9
20260903173809 21 218 0.0 0.0 0.00 0.00 0.00 16 1014.0
20260903173308 20 218 0.0 0.0 0.00 0.00 0.00 15 1014.0
20260903172809 20 218 0.0 0.0 0.00 0.00 0.00 15 1014.1
20260903172308 20 218 0.0 0.0 0.00 0.00 0.00 15 1014.0
20260903171808 20 218 0.0 0.0 0.00 0.00 0.00 14 1013.9
20260903171309 19 218 0.0 0.0 0.00 0.00 0.00 14 1013.9
20260903170809 19 218 0.0 0.0 0.00 0.00 0.00 13 1013.9
20260903170308 19 218 0.0 0.0 0.00 0.00 0.00 13 1013.9
20260903165808 19 218 0.0 0.0 0.00 0.00 0.00 11 1013.9
20260903164808 18 218 0.0 0.0 0.00 0.00 0.00 8 1014.0
20260903164308 18 218 0.0 0.0 0.00 0.00 0.00 7 1014.1
20260903163808 17 218 0.0 0.0 0.00 0.00 0.00 7 1014.1
20260903162807 17 218 0.0 0.0 0.00 0.00 0.00 6 1014.0
20260903162308 17 218 0.0 0.0 0.00 0.00 0.00 6 1014.1
20260903160307 16 218 0.0 0.0 0.00 0.00 0.00 5 1014.2
20260903155807 16 218 0.0 0.0 0.00 0.00 0.00 5 1014.3
20260903155307 16 218 0.0 0.0 0.00 0.00 0.00 5 1014.4
20260903154807 16 218 0.0 0.0 0.00 0.00 0.00 5 1014.4
20260903154307 16 218 0.0 0.0 0.00 0.00 0.00 5 1014.4
20260903153807 16 218 0.0 0.0 0.00 0.00 0.00 5 1014.4
20260903152807 16 218 0.0 0.0 0.00 0.00 0.00 6 1014.4
20260903152307 15 218 0.0 0.0 0.00 0.00 0.00 6 1014.5
20260903151807 15 218 0.0 0.0 0.00 0.00 0.00 6 1014.5
20260903151307 15 218 0.0 0.0 0.00 0.00 0.00 6 1014.4
20260903150307 15 218 0.0 0.0 0.00 0.00 0.00 7 1014.4
20260903145807 15 218 0.0 0.0 0.00 0.00 0.00 7 1014.5
20260903144807 15 218 0.0 0.0 0.00 0.00 0.00 7 1014.5
20260903144307 15 218 0.0 0.0 0.00 0.00 0.00 7 1014.5
20260903143806 15 218 0.0 0.0 0.00 0.00 0.00 7 1014.5
20260903143307 14 218 0.0 0.0 0.00 0.00 0.00 7 1014.3
20260903142807 14 218 0.0 0.0 0.00 0.00 0.00 7 1014.4
20260903142307 14 218 0.0 0.0 0.00 0.00 0.00 7 1014.2
20260903141806 14 218 0.0 0.0 0.00 0.00 0.00 7 1014.2
20260903141306 13 218 0.0 0.0 0.00 0.00 0.00 7 1014.1
20260903140806 13 218 0.0 0.0 0.00 0.00 0.00 7 1014.1
20260903135806 13 218 0.0 0.0 0.00 0.00 0.00 7 1014.2
20260903135306 13 218 0.0 0.0 0.00 0.00 0.00 7 1014.2
20260903134806 13 218 0.0 0.0 0.00 0.00 0.00 7 1014.1
20260903134305 13 218 0.0 0.0 0.00 0.00 0.00 7 1014.1
20260903133806 12 218 0.0 0.0 0.00 0.00 0.00 7 1014.1
20260903132806 12 218 0.0 0.0 0.00 0.00 0.00 7 1014.2
20260903132306 12 218 0.0 0.0 0.00 0.00 0.00 7 1014.2
20260903131806 12 218 0.0 0.0 0.00 0.00 0.00 7 1014.1
20260903131305 12 218 0.0 0.0 0.00 0.00 0.00 7 1014.2
20260903130305 13 218 0.0 0.0 0.00 0.00 0.00 7 1014.2
20260903125805 13 218 0.0 0.0 0.00 0.00 0.00 7 1014.3
20260903124805 13 218 0.0 0.0 0.00 0.00 0.00 7 1014.1
20260903124305 13 218 0.0 0.0 0.00 0.00 0.00 7 1014.2
20260903123805 13 218 0.0 0.0 0.00 0.00 0.00 7 1014.1
20260903122805 13 218 0.0 0.0 0.00 0.00 0.00 7 1014.1
20260903122306 13 218 0.0 0.0 0.00 0.00 0.00 7 1014.2
20260903121805 13 218 0.0 0.0 0.00 0.00 0.00 7 1014.1
20260903121305 13 218 0.0 0.0 0.00 0.00 0.00 7 1014.2
20260903120805 13 218 0.0 0.0 0.00 0.00 0.00 7 1014.3
20260903115804 13 218 0.0 0.0 0.00 0.00 0.00 7 1014.3
20260903115306 13 218 0.0 0.0 0.00 0.00 0.00 7 1014.4
20260903114805 13 218 0.0 0.0 0.00 0.00 0.00 6 1014.4
20260903113804 13 218 0.0 0.0 0.00 0.00 0.00 7 1014.5
20260903113304 13 218 0.0 0.0 0.00 0.00 0.00 7 1014.5
20260903112804 13 218 0.0 0.0 0.00 0.00 0.00 7 1014.5
20260903111304 14 218 0.0 0.0 0.00 0.00 0.00 6 1014.6
20260903110804 14 218 0.0 0.0 0.00 0.00 0.00 7 1014.6
20260903105804 14 218 0.0 0.0 0.00 0.00 0.00 7 1014.7
20260903104304 15 218 0.0 0.0 0.00 0.00 0.00 7 1014.8
20260903103804 15 218 0.0 0.0 0.00 0.00 0.00 7 1014.8
20260903103303 15 218 0.0 0.0 0.00 0.00 0.00 6 1014.8
20260903102803 15 218 0.0 0.0 0.00 0.00 0.00 6 1014.8